Temp
44 45 44 44 44 45 44 44 43 39 40 44 44 47 47 47 46 47 46 45 47 47 48 48 48 49 50 51 52 52 53 53 53 53 54 54 55 55
44 44 43 42 42 42 42 42 42 40 36 42 43 44 45 45 45 45 45 43 44 45 46 46 47 48 49 50 50 51 51 52 51 51 53 53 52 52
43 42 40 41 41 41 41 41 40 39 36 40 41 42 42 42 43 44 44 43 44 44 44 46 47 47 47 48 48 49 50 50 50 50 50 51 51 50
39 39 38 41 39 39 40 39 39 39 37 35 39 40 39 41 41 40 41 42 42 42 44 45 45 45 46 46 46 47 47 48 48 48 49 50 51 51
39 38 38 39 38 39 38 38 39 39 39 36 36 38 39 41 39 40 40 41 42 43 44 44 44 44 44 45 45 45 44 45 46 48 48 49 49 50
37 38 38 38 38 39 39 38 38 38 37 36 37 37 37 38 38 36 35 38 38 41 42 42 42 42 43 43 42 42 43 45 46 47 47 47 47 48
36 37 39 40 40 40 40 39 37 35 36 35 34 34 34 34 32 34 33 35 37 40 38 39 40 40 41 41 41 42 44 45 46 46 46 46 46 46
36 36 37 37 38 38 40 41 39 36 35 33 33 32 33 33 34 32 32 30 28 39 35 35 39 37 40 40 41 41 43 44 44 45 45 45 45 46
36 36 36 37 36 37 38 38 37 38 37 36 33 33 32 34 32 31 31 30 30 34 33 31 37 36 39 40 39 40 42 43 42 43 43 44 44 45
35 35 35 36 36 39 38 36 36 36 36 37 36 35 35 36 35 34 32 31 33 35 35 28 36 35 38 39 39 40 41 41 41 41 42 42 43 43
36 36 37 36 37 41 38 34 34 35 37 37 37 36 36 36 36 33 29 26 25 30 35 31 33 32 35 37 39 39 39 39 39 40 41 41 41 42
36 36 36 38 39 39 36 33 31 33 33 34 34 34 33 33 33 32 29 25 25 26 33 28 31 29 27 36 37 38 38 38 39 38 39 39 40 41
34 34 35 37 37 37 37 34 34 36 32 31 31 31 32 33 32 32 32 29 26 26 34 30 29 29 28 28 34 37 37 37 37 38 37 37 38 40
33 34 35 36 35 35 34 36 36 32 31 30 30 30 30 31 31 32 33 33 33 30 33 31 27 28 27 26 28 34 36 37 37 36 36 37 37 37
35 35 34 34 33 32 33 33 31 30 29 28 28 28 29 30 31 31 31 32 32 32 33 33 30 30 29 27 26 29 30 34 35 34 35 35 34 35
32 32 32 31 31 30 30 30 31 30 29 27 27 29 30 29 29 30 27 28 27 29 32 33 33 31 28 29 28 28 32 29 34 34 34 35 36 35
31 30 29 28 27 28 28 29 29 29 27 27 27 26 27 27 27 28 27 26 24 25 27 31 32 31 31 29 27 31 31 31 32 32 32 32 34 34
29 27 26 25 25 25 25 26 27 27 27 26 26 25 23 23 24 26 26 24 23 25 26 28 28 28 30 31 32 31 31 30 31 32 31 29 31 34
27 25 24 24 24 24 24 24 24 26 26 24 23 23 23 23 24 23 24 24 24 26 26 25 25 24 23 22 30 34 28 29 29 30 30 30 29 31
26 25 24 24 24 24 24 24 25 25 24 24 24 23 26 23 23 23 23 22 25 25 24 25 24 24 22 23 24 29 31 28 28 27 28 31 32 33
26 26 25 24 24 24 24 24 23 23 25 24 23 21 23 23 22 23 23 26 26 23 21 23 26 29 22 23 23 25 28 31 31 28 28 27 27 28
27 26 26 25 24 24 23 23 23 23 23 23 23 23 24 24 22 22 23 23 24 24 23 25 26 23 24 21 19 20 25 27 30 31 32 31 28 24
27 27 27 25 24 23 23 22 22 22 22 22 23 23 24 23 24 24 24 25 24 24 23 23 24 23 22 20 21 20 19 22 25 25 29 31 32 32
MSLP
1025.67 1025.71 1026.16 1026.57 1026.85 1026.75 1026.70 1026.90 1027.24 1026.77 1026.52 1026.57 1026.44 1026.42 1026.32 1025.89 1025.71 1025.47 1025.07 1024.64 1023.98 1023.42 1022.68 1022.06 1021.52 1020.86 1020.14 1019.43 1018.84 1018.35 1017.68 1017.05 1016.52 1016.09 1015.71 1015.18 1014.55 1014.36
1026.47 1026.24 1026.47 1027.12 1027.26 1027.03 1027.10 1027.27 1027.52 1027.23 1027.11 1027.12 1026.70 1026.70 1026.42 1026.13 1025.81 1025.44 1025.13 1024.65 1023.89 1023.20 1022.66 1021.98 1021.26 1020.56 1019.89 1019.24 1018.55 1017.95 1017.37 1016.79 1016.50 1015.85 1015.24 1014.73 1014.56 1014.30
1026.28 1026.50 1026.49 1027.52 1027.64 1027.55 1027.43 1027.52 1027.40 1027.42 1027.32 1026.92 1027.02 1026.65 1026.28 1026.14 1025.82 1025.40 1024.88 1024.23 1023.45 1023.15 1022.63 1021.83 1021.14 1020.42 1019.75 1019.03 1018.37 1017.85 1017.20 1016.67 1016.23 1015.76 1015.21 1014.80 1014.58 1014.39
1026.87 1026.95 1027.32 1027.79 1027.80 1027.79 1027.50 1027.54 1027.44 1027.51 1027.25 1027.07 1026.60 1026.29 1026.26 1026.16 1025.64 1025.07 1024.53 1024.05 1023.56 1022.99 1022.25 1021.59 1020.95 1020.40 1019.81 1019.07 1018.47 1017.85 1017.20 1016.61 1016.11 1015.63 1015.22 1014.68 1014.26 1013.95
1027.18 1027.00 1027.71 1027.88 1027.83 1027.73 1027.37 1027.50 1027.49 1027.31 1027.05 1026.87 1026.44 1026.59 1026.20 1025.54 1025.12 1024.62 1024.27 1023.85 1023.31 1022.64 1021.90 1021.31 1020.90 1020.27 1019.56 1018.96 1018.37 1017.72 1017.18 1016.64 1016.02 1015.36 1014.99 1014.68 1014.32 1013.93
1027.41 1027.28 1027.94 1027.92 1027.61 1027.57 1027.48 1027.29 1027.28 1027.12 1026.98 1026.72 1026.46 1026.10 1025.91 1025.43 1025.21 1024.62 1024.04 1023.84 1023.04 1022.38 1021.88 1021.30 1020.75 1020.03 1019.37 1018.77 1018.32 1017.73 1016.94 1016.20 1015.62 1015.13 1014.85 1014.63 1014.25 1013.88
1027.83 1027.88 1027.92 1027.76 1027.74 1027.51 1027.15 1027.07 1027.13 1027.25 1026.92 1026.92 1026.41 1026.00 1025.59 1025.52 1025.34 1025.11 1024.49 1023.69 1022.97 1022.23 1021.88 1021.18 1020.33 1019.68 1018.99 1018.52 1018.08 1017.40 1016.59 1015.84 1015.31 1014.99 1014.69 1014.38 1014.14 1013.88
1028.05 1028.30 1028.06 1027.92 1027.79 1027.44 1027.20 1026.99 1027.32 1027.11 1027.02 1026.85 1026.25 1026.03 1025.86 1025.96 1025.67 1025.33 1024.75 1023.99 1022.93 1022.29 1021.93 1020.82 1020.23 1019.49 1018.83 1018.37 1017.90 1017.28 1016.51 1015.78 1015.32 1014.95 1014.60 1014.30 1014.05 1013.76
1027.91 1028.21 1027.76 1027.89 1027.87 1027.07 1027.28 1027.24 1027.40 1027.27 1026.88 1026.77 1026.41 1026.33 1026.19 1025.99 1025.78 1025.24 1024.82 1024.21 1023.39 1022.52 1022.11 1020.83 1019.98 1019.25 1018.64 1018.09 1017.60 1017.06 1016.26 1015.84 1015.63 1015.30 1014.81 1014.45 1014.12 1013.73
1027.85 1027.98 1027.66 1027.48 1027.17 1027.30 1027.15 1027.16 1027.16 1026.89 1026.88 1026.50 1026.54 1026.48 1026.23 1025.74 1025.42 1024.96 1024.56 1024.07 1023.23 1022.35 1021.99 1020.95 1020.02 1019.17 1018.44 1017.86 1017.33 1016.97 1016.51 1016.11 1015.67 1015.28 1014.81 1014.40 1013.99 1013.59
1027.67 1027.68 1027.09 1027.66 1027.19 1027.12 1026.78 1026.94 1026.79 1026.62 1026.68 1026.72 1026.52 1026.31 1025.97 1025.69 1025.26 1024.85 1024.34 1023.92 1023.04 1022.22 1021.61 1021.31 1020.30 1019.38 1018.44 1017.56 1017.12 1016.86 1016.39 1016.00 1015.52 1015.01 1014.63 1014.17 1013.79 1013.39
1027.65 1027.27 1027.77 1027.39 1027.12 1027.08 1026.84 1026.82 1026.61 1026.65 1026.87 1026.55 1026.24 1026.01 1025.92 1025.66 1025.19 1024.93 1024.66 1024.10 1023.48 1022.35 1021.77 1021.60 1020.45 1020.26 1018.83 1017.46 1017.10 1016.68 1016.22 1015.74 1015.27 1014.81 1014.45 1014.08 1013.69 1013.24
1027.47 1027.71 1027.80 1027.50 1027.24 1027.03 1026.80 1026.96 1026.77 1026.50 1026.71 1026.54 1026.33 1026.05 1025.70 1025.03 1024.70 1024.56 1024.28 1024.09 1023.52 1022.82 1021.84 1021.93 1020.83 1020.40 1019.88 1018.45 1017.05 1016.45 1016.19 1015.56 1015.12 1014.67 1014.30 1014.03 1013.65 1013.22
1027.80 1027.84 1027.78 1027.45 1027.32 1027.22 1027.20 1026.83 1026.69 1027.00 1026.88 1026.67 1026.22 1025.73 1025.17 1024.72 1024.41 1024.16 1023.78 1023.49 1023.17 1022.72 1021.87 1021.76 1021.14 1020.47 1019.72 1018.65 1017.57 1016.41 1015.92 1015.43 1015.14 1014.75 1014.36 1013.98 1013.58 1013.31
1027.73 1027.68 1027.63 1027.52 1027.48 1027.48 1027.27 1027.24 1027.25 1027.10 1026.83 1026.47 1026.05 1025.75 1025.46 1025.03 1024.54 1023.99 1023.58 1023.14 1022.57 1021.93 1021.39 1021.01 1020.71 1020.04 1019.54 1018.73 1017.99 1017.08 1016.34 1015.33 1015.12 1014.77 1014.31 1013.95 1013.68 1013.44
1027.78 1027.77 1027.69 1027.74 1027.73 1027.76 1027.63 1027.45 1027.21 1026.96 1026.60 1026.50 1026.22 1025.87 1025.38 1024.95 1024.46 1024.09 1023.61 1023.01 1022.38 1021.46 1020.96 1020.54 1020.06 1019.70 1018.96 1018.31 1017.88 1017.16 1016.60 1015.93 1015.33 1014.85 1014.44 1013.97 1013.67 1013.54
1027.75 1027.91 1027.99 1027.98 1027.94 1027.82 1027.60 1027.39 1027.10 1026.79 1026.64 1026.56 1026.30 1025.97 1025.60 1025.17 1024.56 1024.12 1023.68 1023.26 1022.75 1021.86 1020.89 1020.10 1019.63 1019.20 1018.48 1018.13 1017.65 1017.04 1016.55 1016.09 1015.71 1015.22 1014.62 1014.05 1013.84 1013.69
1027.93 1028.16 1028.21 1028.21 1028.05 1027.87 1027.69 1027.45 1027.12 1026.93 1026.83 1026.64 1026.35 1026.09 1025.81 1025.35 1024.68 1024.07 1023.77 1023.35 1022.71 1021.88 1021.07 1020.23 1019.68 1018.85 1018.10 1017.49 1017.38 1016.90 1016.64 1016.34 1015.89 1015.37 1014.97 1014.44 1013.88 1013.65
1028.13 1028.27 1028.26 1028.16 1028.08 1028.00 1027.77 1027.54 1027.31 1027.09 1026.89 1026.64 1026.33 1025.94 1025.67 1025.23 1024.55 1024.07 1023.64 1023.14 1022.43 1021.74 1021.07 1020.63 1020.07 1019.55 1018.71 1018.00 1017.31 1017.03 1016.83 1016.47 1015.98 1015.43 1015.12 1014.71 1014.29 1013.88
1028.18 1028.16 1028.14 1028.11 1028.07 1027.90 1027.64 1027.50 1027.26 1026.92 1026.60 1026.37 1025.96 1025.67 1025.21 1024.95 1024.37 1023.93 1023.50 1022.99 1022.17 1021.65 1021.09 1020.58 1020.18 1019.78 1019.42 1018.69 1018.04 1017.13 1016.96 1016.63 1016.17 1015.67 1015.19 1014.85 1014.47 1014.11
1027.97 1027.88 1028.02 1028.00 1027.89 1027.73 1027.54 1027.40 1027.16 1026.79 1026.32 1026.16 1025.73 1025.45 1025.08 1024.69 1024.17 1023.80 1023.35 1022.73 1022.09 1021.65 1021.04 1020.44 1020.00 1019.59 1019.53 1019.17 1018.46 1017.54 1016.82 1016.50 1016.24 1015.80 1015.32 1014.93 1014.55 1014.28
1027.63 1027.65 1027.68 1027.73 1027.73 1027.61 1027.40 1027.20 1026.90 1026.53 1026.16 1025.84 1025.40 1025.10 1024.72 1024.29 1023.87 1023.44 1023.00 1022.44 1021.90 1021.53 1021.07 1020.50 1019.95 1019.71 1019.30 1019.23 1018.78 1018.14 1017.26 1016.60 1016.04 1015.71 1015.41 1015.17 1014.84 1014.53
1027.34 1027.35 1027.34 1027.43 1027.44 1027.31 1027.14 1026.95 1026.65 1026.30 1025.97 1025.56 1025.10 1024.69 1024.28 1023.83 1023.43 1023.10 1022.72 1022.23 1021.87 1021.39 1020.97 1020.40 1020.00 1019.80 1019.48 1019.30 1018.91 1018.32 1017.77 1017.10 1016.51 1015.98 1015.55 1015.40 1015.10 1014.89
Wind_Speed
6 7 6 4 4 3 3 2 1 3 3 1 3 6 9 9 12 12 13 18 23 23 23 24 24 24 24 24 24 24 25 25 25 26 26 27 26 23
4 7 6 4 4 4 3 2 1 1 3 2 4 8 10 9 11 12 13 18 18 20 22 23 23 24 23 24 23 23 24 24 24 22 23 20 19 15
6 7 8 5 3 3 3 2 2 0 4 5 5 8 10 11 11 10 10 11 11 18 19 22 21 21 21 22 22 23 23 24 21 19 16 13 13 15
6 7 6 3 5 4 3 4 3 2 2 8 8 9 10 10 12 12 10 10 11 14 20 20 20 22 23 22 22 23 22 22 22 19 17 14 15 15
6 7 5 4 4 3 4 4 3 3 4 5 8 8 7 9 11 11 10 12 10 17 21 19 18 23 22 21 21 22 20 20 20 18 14 15 15 16
6 7 5 5 5 5 4 4 5 6 6 7 8 8 8 9 9 11 11 10 11 11 13 14 22 21 19 19 18 19 19 19 18 17 15 15 14 14
6 5 4 5 7 7 4 6 6 5 7 8 7 8 8 10 12 10 11 11 12 7 8 11 11 11 10 12 13 21 22 19 17 15 14 12 12 12
5 4 3 5 6 8 8 9 8 7 8 7 7 9 10 11 9 10 10 11 9 7 12 11 10 10 9 8 19 22 20 17 15 14 13 12 13 14
5 3 3 3 6 6 6 6 4 8 9 7 8 9 11 12 10 11 11 11 11 11 11 10 9 9 9 11 19 17 15 13 16 17 16 15 14 13
5 4 3 6 6 7 2 3 4 7 5 5 7 9 10 10 9 10 10 11 10 9 8 7 10 10 11 9 13 12 17 19 18 17 15 15 15 15
4 4 6 6 8 10 7 5 6 7 7 9 12 14 14 13 11 6 7 9 9 10 7 7 7 12 9 7 6 14 16 14 15 16 17 15 14 15
3 5 7 7 11 12 7 6 7 8 5 8 9 9 9 8 10 6 6 7 8 6 3 8 8 6 7 4 8 7 8 13 17 15 14 13 12 7
4 3 3 9 11 11 10 5 7 8 8 7 6 5 5 6 6 7 7 6 8 8 10 6 6 7 4 8 8 8 7 10 9 8 11 11 12 10
3 2 3 10 10 10 7 9 10 7 4 5 5 5 7 8 8 9 10 9 8 11 12 9 5 7 7 8 7 7 10 8 5 6 5 7 10 9
2 4 9 9 9 6 8 8 5 3 4 6 6 7 7 8 10 9 9 10 10 10 7 9 7 9 7 7 7 8 10 6 6 7 7 6 5 4
3 4 6 6 6 5 5 4 3 4 5 5 6 7 8 8 7 7 8 9 8 6 7 7 8 7 7 6 7 7 6 5 8 7 7 4 3 3
3 2 3 4 4 4 4 4 4 4 5 5 6 7 7 7 7 7 6 7 5 7 8 8 8 8 7 8 4 4 5 6 7 7 7 5 3 4
3 2 3 3 3 4 4 5 4 6 5 5 5 5 6 7 8 8 6 6 7 7 8 8 7 8 5 2 7 4 5 7 7 7 6 6 4 5
0 1 2 3 4 4 4 4 5 5 6 4 4 5 6 6 9 8 7 7 7 7 8 6 5 6 8 8 3 3 6 7 7 6 5 5 5 6
1 2 3 3 4 4 4 5 5 5 6 5 6 5 7 5 7 7 7 7 8 7 7 6 5 6 6 6 5 6 11 5 6 6 6 5 5 7
2 3 3 3 4 4 5 5 5 5 6 6 5 5 6 5 6 6 7 11 11 6 8 8 7 14 5 3 4 4 5 9 8 6 5 4 3 3
3 4 4 3 4 5 5 5 5 6 6 6 6 6 6 6 6 6 7 8 8 7 7 7 7 5 2 3 4 6 6 6 8 9 6 8 2 3
4 4 4 3 4 5 5 5 5 6 6 6 6 6 6 6 6 6 7 7 7 7 7 6 5 3 3 2 5 4 5 6 5 6 4 11 8 8
Wind_Direction
94 103 96 82 73 87 87 114 244 302 309 39 324 352 338 338 332 328 325 322 324 326 330 329 324 319 316 317 316 313 308 306 307 307 304 300 291 293
100 96 87 68 65 72 83 96 159 229 282 275 305 317 324 325 323 323 318 315 316 326 328 325 319 317 318 317 315 316 312 315 313 313 309 305 312 315
88 86 80 71 64 66 70 65 75 98 290 310 295 316 320 325 321 316 316 320 320 325 322 327 329 330 324 319 319 321 324 321 318 315 323 326 329 327
89 79 74 84 73 62 64 46 17 352 305 314 328 330 324 321 318 321 332 331 324 318 325 328 330 330 326 320 322 318 317 318 318 313 309 321 321 319
94 92 89 88 67 38 37 16 1 346 343 323 327 318 298 330 333 338 337 326 317 318 323 324 327 327 325 328 327 327 322 313 310 309 305 316 317 315
93 88 99 77 56 20 22 16 9 358 347 330 317 324 336 338 340 334 329 331 324 316 319 313 320 317 320 325 334 334 324 314 308 308 310 313 315 317
82 82 89 61 24 12 16 10 9 348 336 329 329 334 338 342 340 332 324 322 323 322 326 316 316 317 320 325 326 335 330 320 311 317 315 316 321 319
107 90 74 43 15 11 12 8 360 340 334 326 334 336 331 329 325 326 320 324 326 326 327 316 317 317 322 320 319 321 320 328 339 335 329 332 335 330
106 85 61 16 359 356 335 356 9 333 338 328 324 324 320 319 314 313 318 316 310 317 322 313 321 322 323 314 321 324 323 342 341 332 329 326 323 324
96 64 53 12 1 319 358 348 339 334 331 334 320 312 304 306 311 309 315 312 310 317 331 297 325 321 321 316 321 331 337 327 320 320 317 314 306 306
59 35 39 357 313 337 355 348 338 341 340 322 319 317 319 323 321 328 328 327 324 325 329 313 325 318 313 307 314 323 330 330 329 324 320 316 312 306
47 42 7 348 349 347 356 360 342 334 325 330 329 331 334 329 348 347 330 321 321 314 342 329 322 345 312 304 316 321 322 322 326 322 323 324 323 306
37 21 357 343 353 350 353 341 313 348 339 335 331 329 332 345 343 331 316 299 301 289 297 320 300 314 282 305 311 320 320 323 325 325 325 320 320 314
17 348 338 356 357 355 346 332 344 350 335 329 333 331 339 339 331 322 317 307 287 278 291 289 270 289 290 296 296 322 327 325 326 324 329 320 321 333
334 9 3 4 1 358 349 350 356 342 336 340 336 337 331 322 317 320 318 311 302 290 281 284 273 288 284 273 288 309 324 328 326 329 330 331 323 332
58 19 8 7 9 2 357 357 352 343 349 339 335 332 327 330 330 332 326 329 320 319 317 301 298 292 298 285 288 297 315 318 336 344 331 323 344 342
87 28 6 2 354 353 355 348 346 349 356 345 337 338 332 331 330 330 331 329 319 322 327 327 331 301 280 266 295 319 338 336 338 338 340 332 14 351
56 12 351 342 340 340 339 336 340 346 338 331 327 327 324 330 329 332 327 322 317 320 326 333 331 337 336 279 220 313 336 334 332 333 340 326 328 343
69 355 334 334 328 322 322 328 318 317 317 312 313 323 315 316 333 324 325 324 320 326 329 334 329 339 329 327 306 251 332 331 327 331 337 340 325 329
290 303 322 323 316 315 319 314 311 317 320 315 319 316 313 308 321 326 324 315 318 335 329 328 329 337 322 315 315 307 321 323 332 324 325 328 310 318
301 307 302 300 309 312 308 304 303 307 310 319 311 311 311 311 307 313 314 323 332 323 321 328 323 321 295 273 299 310 315 328 332 319 316 315 332 340
303 302 299 297 302 309 307 305 305 306 308 308 312 312 306 304 302 306 310 318 325 322 313 307 319 336 342 357 321 311 321 331 339 351 14 6 319 342
295 296 301 289 295 303 302 299 297 298 296 295 301 301 301 305 311 305 308 317 318 319 325 321 334 344 322 324 324 316 314 328 342 343 347 5 7 354